Location: ??????
(41.3164°N, 22.6615°E)
Time: 03:33:02
(UTC+00:00)

UWE-3 - Pass Details

Date: 01 July 2022
Orbit: 583 x 677 km, 97.7° (Epoch: 11 August)

Event Time Altitude Azimuth Distance (km) Brightness Sun altitude
Rises 00:37:00 0° 35° (NE) 2,900 ? -19.5°
Reaches altitude 10° 00:40:29 10° 65° (ENE) 2,011 ? -19.1°
Maximum altitude 00:42:21 12° 91° (E) 1,859 ? -18.9°
Drops below altitude 10° 00:44:13 10° 116° (ESE) 2,029 ? -18.8°
Enters shadow 00:47:09 - 142° (SE) 2,767 ? -18.5°
